Regional Weather Roundup
Issued by NWS

Home | Current Version | Previous Version | Graphics & Text | Print | Product List | Glossary On
Versions: 1 2 3 4 5 6 7 8 9 10 11 12 13 14 15 16 17 18 19 20 21 22 23 24 25 26 27 28 29 30 31 32 33 34 35 36 37 38 39 40 41 42 43 44 45 46 47 48 49 50
000
ASUS45 KBOI 280510
RWRID

IDAHO REGIONAL WEATHER ROUNDUP
NATIONAL WEATHER SERVICE BOISE ID
1100 PM MDT TUE SEP 27 2016

NOTE: "FAIR" INDICATES FEW OR NO CLOUDS BELOW 12000 FEET
WITH NO SIGNIFICANT WEATHER AND/OR OBSTRUCTIONS TO VISIBILITY

IDZ012-014-280600-
SOUTHWEST IDAHO


CITY           SKY/WX    TMP DP  RH WIND       PRES   REMARKS
BOISE          CLEAR     68  41  37 SE8       30.00S
CALDWELL       CLEAR     62  49  62 CALM      29.99S
MOUNTAIN HOME  CLEAR     62  43  49 E6        30.02R
$$

IDZ016-017-280600-
SOUTHCENTRAL IDAHO


CITY           SKY/WX    TMP DP  RH WIND       PRES   REMARKS
BURLEY         CLEAR     52  47  83 CALM      30.10R
JEROME         CLEAR     67  37  33 E10       30.10R
TWIN FALLS     CLEAR     57  44  62 S12       30.10R
$$

IDZ019>023-280600-
SOUTHEAST IDAHO


CITY           SKY/WX    TMP DP  RH WIND       PRES   REMARKS
IDAHO FALLS    CLEAR     51  43  74 CALM      30.18R
POCATELLO      CLEAR     55  47  74 CALM      30.15S
REXBURG        CLEAR     51  44  77 E3        30.19R
$$

IDZ006-010-011-018-031-032-280600-
CENTRAL IDAHO MOUNTAINS


CITY           SKY/WX    TMP DP  RH WIND       PRES   REMARKS
MCCALL         CLEAR     55  41  59 N5        30.15S
HAILEY         CLEAR     54  43  66 W8        30.23R
STANLEY          N/A     51  35  54 CALM      30.27R
SALMON         CLEAR     48  41  76 CALM      30.11R
CHALLIS        CLEAR     53  35  50 CALM      30.17R
$$

IDZ002-004-006-007-026-280600-
NORTHERN IDAHO


CITY           SKY/WX    TMP DP  RH WIND       PRES   REMARKS
LEWISTON       CLEAR     69  45  41 S6        29.99S
LOWELL           N/A     57  53  86 CALM      30.04R
COEUR D`ALENE  CLEAR     57  47  69 CALM      30.05R
MULLAN PASS    CLEAR     56  41  57 S3        30.21S
$$



USA.gov is the U.S. government's official web portal to all federal, state and local government web resources and services.